Malaga, WA

9:48 PM PDT on August 31, 2016 (GMT -0700)
Pangborn Memorial

Weather History for KEAT - July, 2013

Change the Weather History Date:

Monday, July 22, 2013

  Actual Average Record
Temperature  
Mean Temperature 71 °F 76 °F  
Max Temperature 91 °F 89 °F 107 °F (1994)
Min Temperature 51 °F 63 °F 49 °F (1982)
Degree Days  
Heating Degree Days 0 0  
Month to date heating degree days 11 2  
Since 1 June heating degree days 204 60  
Since 1 July heating degree days 11 2  
Cooling Degree Days 6 11  
Month to date cooling degree days 95 191  
Year to date cooling degree days 118 630  
Since 1 June cooling degree days 114 483  
Growing Degree Days 34 (Base 50)    
Moisture  
Dew Point 42 °F    
Average Humidity 25    
Maximum Humidity 41    
Minimum Humidity 10    
Precipitation  
Precipitation 0.00 in 0.01 in 0.08 in (1992)
Month to date precipitation T 0.21  
Year to date precipitation 7.75 4.46  
Snow  
Snow 0.00 in - - ()
Month to date snowfall 0.0  
Since 1 June snowfall 0.0  
Snow Depth 0.00 in    
Sea Level Pressure  
Sea Level Pressure 29.80 in    
Wind  
Wind Speed 14 mph (WNW)    
Max Wind Speed 23 mph    
Max Gust Speed 22 mph    
Visibility 10 miles    
Events      
T = Trace of Precipitation, MM = Missing Value Source: NWS Daily Summary

Daily Weather History Graph

Daily Weather History Graph

Search for Another Location

Airport or City:

Trip Planner

Search our weather history database for the weather conditions in past years. The results will help you decide how hot, cold, wet, or windy it might be!

Date:

Astronomy

Jul. 22, 2013 Rise Set
Actual Time 5:27 AM PDT 8:46 PM PDT
Civil Twilight 4:49 AM PDT 9:23 PM PDT
Nautical Twilight 4:00 AM PDT 10:12 PM PDT
Astronomical Twilight 2:57 AM PDT 11:14 PM PDT
Moon 8:28 PM PDT (7/22) 5:34 AM PDT (7/22)
Length of Visible Light 16h 33m
Length of Day
15h 19m
Full, 100% of the Moon is Illuminated
Jul 22
Full
Jul 29
Last Quarter
Aug 6
New
Aug 14
First Quarter
Aug 20
Full

Hourly Weather History & Observations

Time (PDT) Temp. Dew Point Humidity Pressure Visibility Wind Dir Wind Speed Gust Speed Precip Events Conditions
12:55 AM 75.0 °F 43.0 °F 32% 29.74 in 10.0 mi West 12.7 mph - N/A   Clear
1:55 AM 75.0 °F 39.9 °F 28% 29.74 in 10.0 mi WNW 18.4 mph - N/A   Clear
2:55 AM 73.0 °F 41.0 °F 31% 29.75 in 10.0 mi WNW 16.1 mph - N/A   Clear
3:55 AM 73.0 °F 39.9 °F 30% 29.76 in 10.0 mi WNW 15.0 mph - N/A   Clear
4:55 AM 72.0 °F 39.9 °F 31% 29.78 in 10.0 mi NW 10.4 mph - N/A   Clear
5:55 AM 70.0 °F 43.0 °F 38% 29.79 in 10.0 mi NW 10.4 mph - N/A   Clear
6:55 AM 70.0 °F 45.0 °F 41% 29.81 in 10.0 mi North 9.2 mph - N/A   Clear
7:55 AM 75.0 °F 44.1 °F 33% 29.81 in 10.0 mi NW 16.1 mph - N/A   Clear
8:55 AM 78.1 °F 45.0 °F 31% 29.82 in 10.0 mi NW 16.1 mph - N/A   Clear
9:55 AM 81.0 °F 44.1 °F 27% 29.83 in 10.0 mi NW 15.0 mph 21.9 mph N/A   Clear
10:55 AM 84.0 °F 43.0 °F 24% 29.82 in 10.0 mi NNW 16.1 mph 21.9 mph N/A   Clear
11:55 AM 88.0 °F 43.0 °F 21% 29.83 in 10.0 mi WNW 9.2 mph - N/A   Clear
12:55 PM 91.0 °F 41.0 °F 17% 29.82 in 10.0 mi West 12.7 mph 17.3 mph N/A   Clear
1:55 PM 93.0 °F 39.0 °F 15% 29.81 in 10.0 mi West 10.4 mph - N/A   Clear
2:55 PM 96.1 °F 34.0 °F 11% 29.79 in 10.0 mi WNW 16.1 mph - N/A   Clear
3:55 PM 97.0 °F 37.9 °F 13% 29.79 in 10.0 mi WNW 17.3 mph - N/A   Clear
4:55 PM 97.0 °F 32.0 °F 10% 29.78 in 10.0 mi NW 13.8 mph - N/A   Clear
5:55 PM 96.1 °F 32.0 °F 10% 29.78 in 10.0 mi NW 19.6 mph - N/A   Clear
6:55 PM 93.0 °F 37.9 °F 15% 29.80 in 10.0 mi NW 16.1 mph - N/A   Clear
7:55 PM 89.1 °F 43.0 °F 20% 29.81 in 10.0 mi WNW 15.0 mph - N/A   Clear
8:55 PM 84.9 °F 46.0 °F 26% 29.83 in 10.0 mi WNW 16.1 mph - N/A   Clear
9:55 PM 82.0 °F 48.0 °F 30% 29.86 in 10.0 mi WNW 12.7 mph - N/A   Clear
10:55 PM 80.1 °F 50.0 °F 35% 29.86 in 10.0 mi WNW 18.4 mph - N/A   Clear
11:55 PM 78.1 °F 50.0 °F 37% 29.87 in 10.0 mi WNW 23.0 mph - N/A   Clear